When you browse on this site, cookies collect data to enhance your experience and personalize the content and advertising you see.
Visit our Privacy Policy to learn more. By continuing to use the site, you agree to this use of cookies and data.
  • In Deutschland
  • Länderverzeichnis
  • Für 7 Tage
  • Wassertemperatur
  • Satellitenkarten
  • Wetterkarte
  • Widgets
  • user-avatar
    Anmelden

    Stündliche Wetter Shkoder

    Heute, 25 Mai, Samstag

    Zeit Temperatur Niederschläge Wind Luftdruck Luftfeuchtigkeit
    00:00 +14°C° 0 mm 1 m/S 738 mmHg 91%
    01:00 +14°C° 0 mm 1 m/S 738 mmHg 91%
    02:00 +13°C° 0 mm 1 m/S 738 mmHg 90%
    03:00 +13°C° 0 mm 1 m/S 738 mmHg 90%
    04:00 +13°C° 0 mm 1 m/S 739 mmHg 89%
    05:00 +14°C° 0 mm 1 m/S 739 mmHg 84%
    06:00 +16°C° 0 mm 1 m/S 739 mmHg 80%
    07:00 +18°C° 0 mm 1 m/S 739 mmHg 75%
    08:00 +19°C° 0 mm 1 m/S 739 mmHg 72%
    09:00 +19°C° 0 mm 2 m/S 739 mmHg 70%
    10:00 +20°C° 0 mm 2 m/S 740 mmHg 67%
    11:00 +21°C° 0.1 mm 2 m/S 740 mmHg 66%
    12:00 +21°C° 0.1 mm 2 m/S 739 mmHg 66%
    13:00 +22°C° 0.1 mm 3 m/S 739 mmHg 65%
    14:00 +22°C° 0 mm 3 m/S 739 mmHg 66%
    15:00 +21°C° 0 mm 3 m/S 739 mmHg 67%
    16:00 +21°C° 0 mm 3 m/S 739 mmHg 68%
    17:00 +20°C° 0 mm 2 m/S 739 mmHg 74%
    18:00 +19°C° 0 mm 1 m/S 739 mmHg 80%
    19:00 +18°C° 0 mm 1 m/S 739 mmHg 86%
    20:00 +16°C° 0 mm 1 m/S 739 mmHg 86%
    21:00 +16°C° 0 mm 1 m/S 740 mmHg 86%
    22:00 +15°C° 0 mm 1 m/S 740 mmHg 86%
    23:00 +15°C° 0 mm 1 m/S 740 mmHg 85%

    Morgen, 26 Mai, Sonntag

    Zeit Temperatur Niederschläge Wind Luftdruck Luftfeuchtigkeit
    00:00 +15°C° 0 mm 1 m/S 740 mmHg 84%
    01:00 +15°C° 0 mm 1 m/S 740 mmHg 83%
    02:00 +15°C° 0 mm 1 m/S 740 mmHg 81%
    03:00 +14°C° 0 mm 1 m/S 740 mmHg 80%
    04:00 +14°C° 0 mm 1 m/S 739 mmHg 78%
    05:00 +16°C° 0 mm 1 m/S 740 mmHg 72%
    06:00 +19°C° 0 mm 1 m/S 740 mmHg 67%
    07:00 +20°C° 0 mm 1 m/S 740 mmHg 61%
    08:00 +22°C° 0 mm 1 m/S 739 mmHg 56%
    09:00 +24°C° 0 mm 1 m/S 739 mmHg 50%
    10:00 +26°C° 0 mm 1 m/S 739 mmHg 45%
    11:00 +26°C° 0 mm 1 m/S 739 mmHg 43%
    12:00 +27°C° 0 mm 1 m/S 739 mmHg 42%
    13:00 +27°C° 0 mm 1 m/S 739 mmHg 40%
    14:00 +27°C° 0 mm 2 m/S 738 mmHg 44%
    15:00 +26°C° 0 mm 2 m/S 738 mmHg 48%
    16:00 +25°C° 0 mm 2 m/S 738 mmHg 52%
    17:00 +24°C° 0 mm 2 m/S 738 mmHg 57%
    18:00 +22°C° 0 mm 1 m/S 738 mmHg 62%
    19:00 +18°C° 0 mm 0 m/S 738 mmHg 67%
    20:00 +20°C° 0 mm 1 m/S 738 mmHg 65%
    21:00 +20°C° 0 mm 1 m/S 739 mmHg 63%
    22:00 +19°C° 0 mm 2 m/S 739 mmHg 61%
    23:00 +19°C° 0 mm 2 m/S 739 mmHg 61%

    übermorgen, 27 Mai, Montag

    Zeit Temperatur Niederschläge Wind Luftdruck Luftfeuchtigkeit
    00:00 +19°C° 0 mm 2 m/S 738 mmHg 61%
    01:00 +19°C° 0 mm 2 m/S 738 mmHg 61%
    02:00 +19°C° 0 mm 2 m/S 738 mmHg 63%
    03:00 +19°C° 0 mm 2 m/S 738 mmHg 64%
    04:00 +18°C° 0 mm 2 m/S 737 mmHg 66%
    05:00 +19°C° 0 mm 2 m/S 737 mmHg 68%
    06:00 +20°C° 0 mm 2 m/S 737 mmHg 70%
    07:00 +21°C° 0 mm 2 m/S 737 mmHg 72%
    08:00 +23°C° 0.2 mm 2 m/S 737 mmHg 72%
    09:00 +23°C° 0.2 mm 2 m/S 737 mmHg 73%
    10:00 +22°C° 0.2 mm 3 m/S 737 mmHg 74%
    11:00 +25°C° 0.1 mm 2 m/S 737 mmHg 68%
    12:00 +26°C° 0.1 mm 2 m/S 737 mmHg 63%
    13:00 +27°C° 0.1 mm 2 m/S 737 mmHg 58%
    14:00 +27°C° 0.5 mm 2 m/S 736 mmHg 57%
    15:00 +27°C° 0.5 mm 2 m/S 736 mmHg 57%
    16:00 +28°C° 0.5 mm 2 m/S 735 mmHg 56%
    17:00 +26°C° 0.4 mm 2 m/S 735 mmHg 65%
    18:00 +23°C° 0.4 mm 2 m/S 735 mmHg 74%
    19:00 +21°C° 0.4 mm 1 m/S 735 mmHg 83%
    20:00 +21°C° 0.1 mm 1 m/S 735 mmHg 83%
    21:00 +20°C° 0.1 mm 1 m/S 735 mmHg 84%
    22:00 +20°C° 0.1 mm 1 m/S 736 mmHg 85%
    23:00 +19°C° 0.1 mm 1 m/S 736 mmHg 85%

    28 Mai, Dienstag

    Zeit Temperatur Niederschläge Wind Luftdruck Luftfeuchtigkeit
    00:00 +18°C° 0.1 mm 1 m/S 735 mmHg 85%
    01:00 +18°C° 0.1 mm 1 m/S 735 mmHg 85%
    02:00 +18°C° 0.1 mm 1 m/S 735 mmHg 86%
    03:00 +16°C° 0.1 mm 1 m/S 735 mmHg 87%
    04:00 +16°C° 0.1 mm 1 m/S 735 mmHg 88%
    05:00 +18°C° 0.3 mm 1 m/S 735 mmHg 84%
    06:00 +20°C° 0.3 mm 1 m/S 735 mmHg 80%
    07:00 +21°C° 0.3 mm 1 m/S 735 mmHg 76%
    08:00 +21°C° 0.8 mm 2 m/S 735 mmHg 76%
    09:00 +21°C° 0.8 mm 3 m/S 735 mmHg 75%
    10:00 +21°C° 0.8 mm 4 m/S 735 mmHg 75%
    11:00 +21°C° 1.3 mm 4 m/S 735 mmHg 78%
    12:00 +20°C° 1.3 mm 5 m/S 735 mmHg 81%
    13:00 +20°C° 1.3 mm 5 m/S 735 mmHg 83%
    14:00 +20°C° 1.2 mm 4 m/S 735 mmHg 85%
    15:00 +19°C° 1.2 mm 4 m/S 735 mmHg 86%
    16:00 +19°C° 1.2 mm 4 m/S 735 mmHg 87%
    17:00 +18°C° 0.8 mm 3 m/S 735 mmHg 89%
    18:00 +18°C° 0.8 mm 2 m/S 736 mmHg 91%
    19:00 +17°C° 0.8 mm 2 m/S 736 mmHg 93%
    20:00 +18°C° 0.8 mm 1 m/S 736 mmHg 94%
    21:00 +18°C° 0.8 mm 1 m/S 736 mmHg 94%
    22:00 +16°C° 0.8 mm 1 m/S 737 mmHg 95%
    23:00 +16°C° 0.6 mm 1 m/S 737 mmHg 94%

    29 Mai, Mittwoch

    Zeit Temperatur Niederschläge Wind Luftdruck Luftfeuchtigkeit
    00:00 +16°C° 0.6 mm 1 m/S 737 mmHg 94%
    01:00 +16°C° 0.6 mm 2 m/S 737 mmHg 94%
    02:00 +17°C° 0.5 mm 2 m/S 737 mmHg 93%
    03:00 +17°C° 0.5 mm 2 m/S 737 mmHg 93%
    04:00 +17°C° 0.5 mm 2 m/S 737 mmHg 93%
    05:00 +17°C° 0.4 mm 2 m/S 738 mmHg 92%
    06:00 +17°C° 0.4 mm 2 m/S 738 mmHg 90%
    07:00 +18°C° 0.4 mm 2 m/S 738 mmHg 89%
    08:00 +19°C° 0.4 mm 2 m/S 739 mmHg 86%
    09:00 +20°C° 0.4 mm 3 m/S 739 mmHg 83%
    10:00 +21°C° 0.4 mm 3 m/S 739 mmHg 80%
    11:00 +21°C° 0.6 mm 3 m/S 739 mmHg 79%
    12:00 +21°C° 0.6 mm 3 m/S 739 mmHg 78%
    13:00 +22°C° 0.6 mm 3 m/S 739 mmHg 77%
    14:00 +22°C° 0.1 mm 3 m/S 739 mmHg 76%
    15:00 +23°C° 0.1 mm 2 m/S 739 mmHg 76%
    16:00 +23°C° 0.1 mm 2 m/S 739 mmHg 75%
    17:00 +20°C° 0 mm 2 m/S 740 mmHg 79%
    18:00 +20°C° 0 mm 1 m/S 740 mmHg 84%
    19:00 +17°C° 0 mm 0 m/S 740 mmHg 88%
    20:00 +18°C° 0 mm 1 m/S 741 mmHg 88%
    21:00 +18°C° 0 mm 1 m/S 741 mmHg 88%
    22:00 +16°C° 0 mm 1 m/S 742 mmHg 88%
    23:00 +16°C° 0 mm 1 m/S 742 mmHg 85%

    30 Mai, Donnerstag

    Zeit Temperatur Niederschläge Wind Luftdruck Luftfeuchtigkeit
    00:00 +16°C° 0 mm 1 m/S 742 mmHg 83%
    01:00 +16°C° 0 mm 1 m/S 742 mmHg 81%
    02:00 +16°C° 0 mm 1 m/S 742 mmHg 79%
    03:00 +16°C° 0 mm 1 m/S 742 mmHg 78%
    04:00 +15°C° 0 mm 2 m/S 742 mmHg 77%
    05:00 +18°C° 0 mm 1 m/S 742 mmHg 72%
    06:00 +20°C° 0 mm 1 m/S 742 mmHg 68%
    07:00 +22°C° 0 mm 1 m/S 742 mmHg 64%
    08:00 +23°C° 0 mm 1 m/S 742 mmHg 62%
    09:00 +24°C° 0 mm 1 m/S 742 mmHg 59%
    10:00 +25°C° 0 mm 1 m/S 742 mmHg 57%
    11:00 +25°C° 0.1 mm 2 m/S 742 mmHg 58%
    12:00 +26°C° 0.1 mm 2 m/S 742 mmHg 58%
    13:00 +26°C° 0.1 mm 3 m/S 741 mmHg 59%
    14:00 +25°C° 0.1 mm 2 m/S 741 mmHg 61%
    15:00 +25°C° 0.1 mm 2 m/S 741 mmHg 64%
    16:00 +24°C° 0.1 mm 2 m/S 741 mmHg 67%
    17:00 +23°C° 0.1 mm 1 m/S 741 mmHg 72%
    18:00 +21°C° 0.1 mm 1 m/S 741 mmHg 78%
    19:00 +20°C° 0.1 mm 1 m/S 741 mmHg 83%
    20:00 +19°C° 0 mm 1 m/S 741 mmHg 83%
    21:00 +19°C° 0 mm 1 m/S 741 mmHg 83%
    22:00 +18°C° 0 mm 1 m/S 741 mmHg 83%
    23:00 +18°C° 0 mm 1 m/S 741 mmHg 82%
    Mehr zeigen